CW0238 Weather Reports


Display with metric or nautical units.
time (UTC)temp
F
wind
direction
speed
MPH
gust
MPH
rain 1hr
in
rain 24hr
in
rain mn
in
humidity
%
barometer
mb
20260903180244 96 315 1.0 5.0 0.00 0.00 0.00 46 1016.0
20260903180006 97 333 2.0 5.0 0.00 0.00 0.00 45 1016.1
20260903175244 97 306 2.0 5.0 0.00 0.00 0.00 47 1016.0
20260903174743 96 44 1.0 5.0 0.00 0.00 0.00 46 1016.1
20260903174242 96 293 1.0 4.0 0.00 0.00 0.00 48 1016.2
20260903173744 96 16 1.0 4.0 0.00 0.00 0.00 48 1016.2
20260903173238 96 19 1.0 3.0 0.00 0.00 0.00 50 1016.2
20260903172736 96 296 1.0 3.0 0.00 0.00 0.00 47 1016.3
20260903172456 96 285 1.0 5.0 0.00 0.00 0.00 48 1016.3
20260903171957 96 286 1.0 5.0 0.00 0.00 0.00 47 1016.4
20260903171232 95 323 1.0 4.0 0.00 0.00 0.00 50 1016.4
20260903170732 95 354 1.0 4.0 0.00 0.00 0.00 50 1016.4
20260903165725 94 0 1.0 3.0 0.00 0.00 0.00 49 1016.4
20260903165226 95 296 1.0 3.0 0.00 0.00 0.00 51 1016.5
20260903164720 94 308 1.0 4.0 0.00 0.00 0.00 50 1016.5
20260903164218 94 263 1.0 4.0 0.00 0.00 0.00 52 1016.7
20260903163716 94 304 1.0 4.0 0.00 0.00 0.00 52 1016.6
20260903163226 93 300 0.0 4.0 0.00 0.00 0.00 53 1016.7
20260903162712 93 329 0.0 2.0 0.00 0.00 0.00 54 1016.8
20260903162213 93 329 0.0 1.0 0.00 0.00 0.00 56 1016.8
20260903161714 93 329 1.0 4.0 0.00 0.00 0.00 54 1016.8
20260903161213 93 329 1.0 4.0 0.00 0.00 0.00 55 1016.8
20260903160708 92 15 1.0 3.0 0.00 0.00 0.00 56 1016.9
20260903160207 93 331 0.0 2.0 0.00 0.00 0.00 53 1016.9
20260903155707 92 4 1.0 4.0 0.00 0.00 0.00 54 1016.9
20260903155202 92 156 1.0 4.0 0.00 0.00 0.00 55 1016.9
20260903154700 92 317 1.0 3.0 0.00 0.00 0.00 56 1016.9
20260903153654 91 287 0.0 3.0 0.00 0.00 0.00 56 1016.9
20260903153152 91 280 0.0 3.0 0.00 0.00 0.00 57 1017.0
20260903152651 91 249 0.0 2.0 0.00 0.00 0.00 59 1017.0
20260903152146 90 249 0.0 4.0 0.00 0.00 0.00 59 1016.9
20260903151644 90 214 0.0 4.0 0.00 0.00 0.00 58 1017.0
20260903151406 89 310 0.0 3.0 0.00 0.00 0.00 61 1016.9
20260903150643 89 310 1.0 4.0 0.00 0.00 0.00 62 1017.0
20260903150143 88 312 0.0 4.0 0.00 0.00 0.00 63 1017.0
20260903145643 87 204 0.0 1.0 0.00 0.00 0.00 67 1017.0
20260903145142 87 204 0.0 2.0 0.00 0.00 0.00 67 1017.0
20260903144645 87 204 0.0 2.0 0.00 0.00 0.00 68 1017.0
20260903144145 86 202 0.0 0.0 0.00 0.00 0.00 71 1017.0
20260903143640 85 202 0.0 0.0 0.00 0.00 0.00 72 1017.0
20260903143141 85 202 0.0 2.0 0.00 0.00 0.00 72 1017.0
20260903142901 84 202 0.0 2.0 0.00 0.00 0.00 74 1017.0
20260903142138 83 188 0.0 1.0 0.00 0.00 0.00 76 1017.0
20260903141642 82 188 0.0 1.0 0.00 0.00 0.00 80 1017.0
20260903141138 81 188 0.0 0.0 0.00 0.00 0.00 83 1017.0
20260903140634 80 188 0.0 0.0 0.00 0.00 0.00 86 1017.1
20260903140136 78 188 0.0 0.0 0.00 0.00 0.00 88 1017.1
20260903135635 77 188 0.0 0.0 0.00 0.00 0.00 88 1017.1
20260903135352 77 188 0.0 0.0 0.00 0.00 0.00 88 1017.2
20260903134634 77 188 0.0 0.0 0.00 0.00 0.00 89 1017.2
20260903134132 76 188 0.0 0.0 0.00 0.00 0.00 89 1017.2
20260903133636 76 188 0.0 0.0 0.00 0.00 0.00 89 1017.3
20260903133133 76 188 0.0 0.0 0.00 0.00 0.00 89 1017.4
20260903132633 76 188 0.0 0.0 0.00 0.00 0.00 89 1017.4
20260903132126 75 188 0.0 0.0 0.00 0.00 0.00 89 1017.4
20260903131628 75 188 0.0 0.0 0.00 0.00 0.00 89 1017.6
20260903131128 75 188 0.0 0.0 0.00 0.00 0.00 89 1017.6
20260903130348 75 188 0.0 0.0 0.00 0.00 0.00 89 1017.7
20260903125624 74 188 0.0 0.0 0.00 0.00 0.00 89 1017.8
20260903125353 74 188 0.0 0.0 0.00 0.00 0.00 89 1017.8
20260903124619 74 188 0.0 0.0 0.00 0.00 0.00 89 1017.8
20260903124120 74 188 0.0 0.0 0.00 0.00 0.00 89 1017.7
20260903123616 74 188 0.0 0.0 0.00 0.00 0.00 89 1017.7
20260903123117 74 188 0.0 0.0 0.00 0.00 0.00 89 1017.8
20260903122613 74 188 0.0 0.0 0.00 0.00 0.00 89 1017.8
20260903122111 74 188 0.0 0.0 0.00 0.00 0.00 89 1017.7
20260903121615 74 188 0.0 0.0 0.00 0.00 0.00 89 1017.7
20260903121110 74 188 0.0 0.0 0.00 0.00 0.00 88 1017.7
20260903120602 74 188 0.0 0.0 0.00 0.00 0.00 89 1017.6
20260903120105 74 188 0.0 0.0 0.00 0.00 0.00 89 1017.6
20260903115840 74 188 0.0 0.0 0.00 0.00 0.00 89 1017.6
20260903115102 74 188 0.0 0.0 0.00 0.00 0.00 89 1017.6
20260903114601 74 188 0.0 0.0 0.00 0.00 0.00 89 1017.4
20260903114057 73 188 0.0 0.0 0.00 0.00 0.00 88 1017.4
20260903113556 73 188 0.0 0.0 0.00 0.00 0.00 89 1017.4
20260903113321 73 188 0.0 0.0 0.00 0.00 0.00 88 1017.4
20260903112554 73 188 0.0 0.0 0.00 0.00 0.00 88 1017.3
20260903112056 73 188 0.0 0.0 0.00 0.00 0.00 88 1017.3
20260903111551 74 188 0.0 0.0 0.00 0.00 0.00 88 1017.2
20260903111102 74 188 0.0 0.0 0.00 0.00 0.00 88 1017.2
20260903110547 74 188 0.0 0.0 0.00 0.00 0.00 88 1017.2
20260903105810 74 188 0.0 0.0 0.00 0.00 0.00 88 1017.1
20260903105043 74 188 0.0 0.0 0.00 0.00 0.00 88 1016.9
20260903104542 74 188 0.0 0.0 0.00 0.00 0.00 88 1016.9
20260903104044 74 188 0.0 0.0 0.00 0.00 0.00 88 1016.9
20260903103540 74 188 0.0 0.0 0.00 0.00 0.00 88 1016.9
20260903103040 74 188 0.0 0.0 0.00 0.00 0.00 88 1016.9
20260903102539 74 188 0.0 0.0 0.00 0.00 0.00 88 1016.9
20260903102319 74 188 0.0 0.0 0.00 0.00 0.00 88 1016.9
20260903101542 74 188 0.0 0.0 0.00 0.00 0.00 88 1016.9
20260903101038 74 188 0.0 0.0 0.00 0.00 0.00 88 1016.9
20260903100551 74 188 0.0 0.0 0.00 0.00 0.00 88 1016.8
20260903100036 74 188 0.0 0.0 0.00 0.00 0.00 88 1016.9
20260903095534 74 188 0.0 0.0 0.00 0.00 0.00 88 1016.8
20260903095035 74 188 0.0 0.0 0.00 0.00 0.00 88 1016.8
20260903094800 74 188 0.0 0.0 0.00 0.00 0.00 88 1016.8
20260903094032 74 188 0.0 0.0 0.00 0.00 0.00 88 1016.9
20260903093534 74 188 0.0 0.0 0.00 0.00 0.00 88 1016.7
20260903093027 74 188 0.0 0.0 0.00 0.00 0.00 88 1016.8
20260903092524 74 188 0.0 0.0 0.00 0.00 0.00 88 1016.7
20260903092028 74 188 0.0 0.0 0.00 0.00 0.00 88 1016.7
20260903091753 74 188 0.0 0.0 0.00 0.00 0.00 88 1016.7
20260903091039 74 188 0.0 0.0 0.00 0.00 0.00 87 1016.7
20260903090537 75 188 0.0 0.0 0.00 0.00 0.00 88 1016.6
20260903090245 75 188 0.0 0.0 0.00 0.00 0.00 88 1016.6
20260903085524 75 188 0.0 0.0 0.00 0.00 0.00 88 1016.6
20260903085023 75 188 0.0 0.0 0.00 0.00 0.00 88 1016.6
20260903084523 75 188 0.0 0.0 0.00 0.00 0.00 88 1016.5
20260903084017 75 188 0.0 0.0 0.00 0.00 0.00 87 1016.5
20260903083514 75 188 0.0 0.0 0.00 0.00 0.00 88 1016.5
20260903083237 75 188 0.0 0.0 0.00 0.00 0.00 88 1016.5
20260903082512 75 188 0.0 0.0 0.00 0.00 0.00 88 1016.4
20260903082009 75 188 0.0 0.0 0.00 0.00 0.00 88 1016.4
20260903081512 75 188 0.0 0.0 0.00 0.00 0.00 88 1016.3
20260903081008 75 188 0.0 0.0 0.00 0.00 0.00 88 1016.4
20260903080505 75 188 0.0 0.0 0.00 0.00 0.00 88 1016.4
20260903080008 75 188 0.0 0.0 0.00 0.00 0.00 88 1016.3
20260903075501 75 188 0.0 0.0 0.00 0.00 0.00 88 1016.3
20260903075235 75 188 0.0 0.0 0.00 0.00 0.00 88 1016.2
20260903074504 75 188 0.0 0.0 0.00 0.00 0.00 87 1016.3
20260903074221 75 188 0.0 0.0 0.00 0.00 0.00 87 1016.2
20260903073500 75 188 0.0 0.0 0.00 0.00 0.00 87 1016.3
20260903072958 75 188 0.0 0.0 0.00 0.00 0.00 87 1016.2
20260903072453 75 188 0.0 0.0 0.00 0.00 0.00 87 1016.2
20260903071951 75 188 0.0 0.0 0.00 0.00 0.00 87 1016.2
20260903071450 75 188 0.0 0.0 0.00 0.00 0.00 88 1016.2
20260903070948 75 188 0.0 0.0 0.00 0.00 0.00 87 1016.2
20260903070447 76 188 0.0 0.0 0.00 0.00 0.00 87 1016.1
20260903070205 76 188 0.0 0.0 0.00 0.00 0.00 87 1016.1
20260903065439 76 188 0.0 0.0 0.00 0.00 0.00 87 1016.2
20260903064940 76 188 0.0 0.0 0.00 0.00 0.00 87 1016.1
20260903064439 76 188 0.0 0.0 0.00 0.00 0.00 87 1016.1
20260903063940 76 188 0.0 0.0 0.00 0.00 0.00 87 1016.1
20260903063706 76 188 0.0 0.0 0.00 0.00 0.00 86 1016.1
20260903062934 76 188 0.0 0.0 0.00 0.00 0.00 86 1016.0
20260903062433 76 188 0.0 0.0 0.00 0.00 0.00 86 1016.1
20260903061934 76 188 0.0 0.0 0.00 0.00 0.00 86 1016.1
20260903061650 76 188 0.0 0.0 0.00 0.00 0.00 86 1016.1
20260903061204 76 188 0.0 0.0 0.00 0.00 0.00 86 1016.1
20260903060430 76 188 0.0 0.0 0.00 0.00 0.00 86 1016.1
20260903055930 76 188 0.0 0.0 0.00 0.00 0.00 86 1016.1
20260903055430 76 188 0.0 0.0 0.00 0.00 0.00 86 1016.0
20260903054928 76 188 0.0 0.0 0.00 0.00 0.00 86 1016.0
20260903054654 76 188 0.0 0.0 0.00 0.00 0.00 86 1016.1
20260903053925 76 188 0.0 0.0 0.00 0.00 0.00 85 1016.1
20260903053424 76 188 0.0 0.0 0.00 0.00 0.00 85 1016.0
20260903053153 76 188 0.0 0.0 0.00 0.00 0.00 85 1016.0
20260903052418 76 188 0.0 0.0 0.00 0.00 0.00 85 1016.0
20260903051917 77 188 0.0 0.0 0.00 0.00 0.00 84 1015.9
20260903051419 77 188 0.0 0.0 0.00 0.00 0.00 84 1016.0
20260903050918 77 188 0.0 0.0 0.00 0.00 0.00 84 1016.0
20260903045914 77 188 0.0 1.0 0.00 0.00 0.00 83 1016.1
20260903045413 77 188 0.0 1.0 0.00 0.00 0.00 83 1016.1
20260903044915 77 188 0.0 0.0 0.00 0.00 0.00 83 1016.1
20260903044410 77 188 0.0 0.0 0.00 0.00 0.00 83 1016.0
20260903043912 77 188 0.0 0.0 0.00 0.00 0.00 83 1016.0
20260903043643 78 188 0.0 0.0 0.00 0.00 0.00 82 1016.1
20260903042909 78 188 0.0 0.0 0.00 0.00 0.00 82 1016.0
20260903042634 78 188 0.0 0.0 0.00 0.00 0.00 82 1015.9
20260903041910 78 188 0.0 0.0 0.00 0.00 0.00 82 1015.9
20260903041410 78 188 0.0 0.0 0.00 0.00 0.00 82 1015.9
20260903041126 78 188 0.0 0.0 0.00 0.00 0.00 82 1016.0
20260903040401 78 188 0.0 0.0 0.00 0.00 0.00 82 1015.9
20260903035901 78 188 0.0 0.0 0.00 0.00 0.00 81 1015.9
20260903035355 78 188 0.0 0.0 0.00 0.00 0.00 81 1015.9
20260903034857 78 188 0.0 0.0 0.00 0.00 0.00 81 1015.9
20260903034351 78 188 0.0 0.0 0.00 0.00 0.00 81 1015.9
20260903033848 78 188 0.0 0.0 0.00 0.00 0.00 81 1015.9
20260903033616 79 188 0.0 0.0 0.00 0.00 0.00 80 1015.9
20260903032846 79 188 0.0 0.0 0.00 0.00 0.00 80 1015.8
20260903032345 79 188 0.0 0.0 0.00 0.00 0.00 79 1015.9
20260903031843 79 188 0.0 0.0 0.00 0.00 0.00 79 1015.9
20260903031338 79 188 0.0 0.0 0.00 0.00 0.00 79 1015.9
20260903030837 79 188 0.0 0.0 0.00 0.00 0.00 79 1015.9
20260903030338 79 188 0.0 0.0 0.00 0.00 0.00 79 1015.9
20260903030054 80 188 0.0 0.0 0.00 0.00 0.00 78 1015.9
20260903025332 80 188 0.0 0.0 0.00 0.00 0.00 78 1015.9
20260903025058 80 188 0.0 0.0 0.00 0.00 0.00 78 1015.9
20260903024602 80 188 0.0 0.0 0.00 0.00 0.00 77 1015.9
20260903023826 80 188 0.0 0.0 0.00 0.00 0.00 77 1015.9
20260903023329 80 188 0.0 0.0 0.00 0.00 0.00 77 1015.9
20260903022827 81 188 0.0 0.0 0.00 0.00 0.00 76 1016.0
20260903022339 81 188 0.0 0.0 0.00 0.00 0.00 76 1015.9
20260903021824 82 188 0.0 0.0 0.00 0.00 0.00 75 1016.0
20260903021324 82 188 0.0 0.0 0.00 0.00 0.00 74 1016.0
20260903020824 82 188 0.0 0.0 0.00 0.00 0.00 74 1016.0
20260903015824 82 188 0.0 0.0 0.00 0.00 0.00 75 1016.0
20260903015320 82 188 0.0 0.0 0.00 0.00 0.00 75 1016.0
20260903014818 82 188 0.0 0.0 0.00 0.00 0.00 74 1016.0
20260903014317 82 188 0.0 0.0 0.00 0.00 0.00 73 1015.9
20260903013815 83 188 0.0 0.0 0.00 0.00 0.00 73 1015.9
20260903013317 83 188 0.0 0.0 0.00 0.00 0.00 72 1015.8
20260903012813 83 188 0.0 0.0 0.00 0.00 0.00 72 1015.8
20260903012313 83 188 0.0 0.0 0.00 0.00 0.00 72 1015.8
20260903011814 84 188 0.0 0.0 0.00 0.00 0.00 72 1015.7
20260903011326 84 188 0.0 0.0 0.00 0.00 0.00 71 1015.7
20260903010815 84 188 0.0 0.0 0.00 0.00 0.00 71 1015.7
20260903010534 85 188 0.0 0.0 0.00 0.00 0.00 70 1015.6
20260903005808 85 188 0.0 0.0 0.00 0.00 0.00 70 1015.7
20260903005309 85 188 0.0 1.0 0.00 0.00 0.00 70 1015.6
20260903004806 85 188 0.0 1.0 0.00 0.00 0.00 70 1015.6
20260903004306 86 188 0.0 0.0 0.00 0.00 0.00 69 1015.6
20260903004033 86 188 0.0 0.0 0.00 0.00 0.00 69 1015.7
20260903003300 86 188 0.0 0.0 0.00 0.00 0.00 69 1015.6
20260903002759 87 188 0.0 0.0 0.00 0.00 0.00 68 1015.6
20260903002255 87 188 0.0 1.0 0.00 0.00 0.00 68 1015.6
20260903001755 87 188 0.0 1.0 0.00 0.00 0.00 68 1015.6
20260903001255 88 188 0.0 0.0 0.00 0.00 0.00 69 1015.6
20260903000752 88 188 0.0 0.0 0.00 0.00 0.00 69 1015.5
20260903000251 88 188 0.0 0.0 0.00 0.00 0.00 68 1015.6
20260902235753 89 188 0.0 0.0 0.00 0.00 0.00 66 1015.6
20260902235521 89 188 0.0 0.0 0.00 0.00 0.00 64 1015.5
20260902234752 90 188 0.0 0.0 0.00 0.00 0.00 62 1015.5
20260902234248 90 188 0.0 0.0 0.00 0.00 0.00 61 1015.5
20260902233747 90 188 0.0 0.0 0.00 0.00 0.00 60 1015.6
20260902233248 91 188 0.0 0.0 0.00 0.00 0.00 58 1015.5
20260902232743 92 188 0.0 0.0 0.00 0.00 0.00 55 1015.5
20260902232241 92 188 0.0 0.0 0.00 0.00 0.00 55 1015.5
20260902231742 93 188 0.0 1.0 0.00 0.00 0.00 53 1015.6
20260902231240 93 188 0.0 2.0 0.00 0.00 0.00 52 1015.6
20260902230741 94 188 0.0 2.0 0.00 0.00 0.00 51 1015.6
20260902230458 94 182 0.0 0.0 0.00 0.00 0.00 50 1015.7
20260902225736 94 182 0.0 1.0 0.00 0.00 0.00 51 1015.6
20260902225236 95 182 0.0 1.0 0.00 0.00 0.00 50 1015.7
20260902224734 95 181 0.0 1.0 0.00 0.00 0.00 49 1015.7
20260902224231 95 181 0.0 1.0 0.00 0.00 0.00 49 1015.6
20260902223733 95 181 0.0 2.0 0.00 0.00 0.00 49 1015.7
20260902223231 95 181 0.0 2.0 0.00 0.00 0.00 48 1015.6
20260902222732 95 177 0.0 2.0 0.00 0.00 0.00 48 1015.7
20260902222453 96 175 0.0 2.0 0.00 0.00 0.00 47 1015.7
20260902221728 96 113 0.0 2.0 0.00 0.00 0.00 46 1015.8
20260902221228 96 356 1.0 4.0 0.00 0.00 0.00 46 1015.8
20260902220727 96 356 0.0 4.0 0.00 0.00 0.00 46 1015.8
20260902220227 96 290 0.0 2.0 0.00 0.00 0.00 47 1015.8
20260902215724 96 290 1.0 4.0 0.00 0.00 0.00 46 1015.8
20260902215224 97 27 1.0 4.0 0.00 0.00 0.00 44 1015.9
20260902214719 97 318 0.0 4.0 0.00 0.00 0.00 47 1015.9
20260902214216 96 257 1.0 4.0 0.00 0.00 0.00 45 1015.9
20260902213718 97 309 1.0 4.0 0.00 0.00 0.00 45 1015.8
20260902213216 97 260 0.0 2.0 0.00 0.00 0.00 45 1015.9
20260902212714 97 259 1.0 2.0 0.00 0.00 0.00 45 1015.9
20260902212216 96 259 1.0 2.0 0.00 0.00 0.00 45 1015.9
20260902211946 97 232 0.0 2.0 0.00 0.00 0.00 44 1016.0
20260902211212 97 323 1.0 3.0 0.00 0.00 0.00 46 1016.1
20260902210711 97 323 1.0 4.0 0.00 0.00 0.00 45 1016.1
20260902210205 97 229 1.0 4.0 0.00 0.00 0.00 45 1016.1
20260902205705 97 331 1.0 3.0 0.00 0.00 0.00 46 1016.2
20260902205424 98 276 1.0 2.0 0.00 0.00 0.00 46 1016.2
20260902204702 98 276 1.0 2.0 0.00 0.00 0.00 44 1016.1
20260902204201 97 281 1.0 3.0 0.00 0.00 0.00 45 1016.2
20260902203702 97 281 2.0 7.0 0.00 0.00 0.00 44 1016.2
20260902203201 98 19 2.0 7.0 0.00 0.00 0.00 43 1016.3
20260902202659 98 294 1.0 4.0 0.00 0.00 0.00 44 1016.3
20260902202154 97 168 0.0 2.0 0.00 0.00 0.00 47 1016.3
20260902201653 98 165 1.0 3.0 0.00 0.00 0.00 44 1016.4
20260902201153 98 40 1.0 3.0 0.00 0.00 0.00 45 1016.4
20260902200909 97 183 1.0 3.0 0.00 0.00 0.00 45 1016.5
20260902200147 97 275 1.0 4.0 0.00 0.00 0.00 45 1016.6
20260902195647 98 306 1.0 4.0 0.00 0.00 0.00 46 1016.6
20260902195140 97 4 1.0 3.0 0.00 0.00 0.00 44 1016.6
20260902194640 98 321 1.0 3.0 0.00 0.00 0.00 43 1016.7
20260902194408 99 316 1.0 3.0 0.00 0.00 0.00 45 1016.8
20260902193636 98 348 1.0 3.0 0.00 0.00 0.00 45 1016.8
20260902193136 98 274 1.0 3.0 0.00 0.00 0.00 48 1016.8
20260902192636 96 324 1.0 3.0 0.00 0.00 0.00 47 1016.8
20260902192132 96 329 1.0 3.0 0.00 0.00 0.00 48 1016.9
20260902191858 96 262 1.0 3.0 0.00 0.00 0.00 49 1017.0
20260902191132 97 260 1.0 3.0 0.00 0.00 0.00 47 1017.1
20260902190631 96 191 1.0 2.0 0.00 0.00 0.00 48 1017.1
20260902190134 96 190 2.0 5.0 0.00 0.00 0.00 47 1017.2
20260902185626 97 186 1.0 5.0 0.00 0.00 0.00 46 1017.2
20260902185125 97 29 1.0 4.0 0.00 0.00 0.00 47 1017.3
20260902184628 96 308 1.0 4.0 0.00 0.00 0.00 49 1017.3
20260902184123 96 310 1.0 4.0 0.00 0.00 0.00 48 1017.4
20260902183849 96 318 1.0 3.0 0.00 0.00 0.00 46 1017.4
20260902183122 96 332 1.0 3.0 0.00 0.00 0.00 49 1017.4
20260902182844 96 310 0.0 3.0 0.00 0.00 0.00 50 1017.4
20260902182116 95 173 0.0 3.0 0.00 0.00 0.00 47 1017.6
20260902181616 95 265 1.0 4.0 0.00 0.00 0.00 49 1017.4
20260902181114 95 267 1.0 4.0 0.00 0.00 0.00 47 1017.4